Погода в Судиславле

Россия / Костромская область     57°52′54″N   41°42′38″E
темп.,
°C
ветер,
м/с
пор.,
м/с
влажн.,
%
обл.,
%
осадки,
мм/ч
давл.,
гПа
погр.,
м
22 января, сб
сб2200:00−8юв51291100 0.4 1006622
03:00−8юв51194100 0.7 1007561
06:00−9юв5119399 0.3 1009515
09:00−10вюв4119499 0.4 1012409
12:00−9вюв41093100 0.1 1013422
15:00−8вюв4993100 0.1 1015442
18:00−9в3994100 0.1 1017360
21:00−11в379687 0.1 1019173
23 января, вс
вс2300:00−13в269784 0.1 1021121
03:00−16в2510086 0.1 102266
06:00−20всв11100100 0.0 10259
09:00−19св1110096 0.1 102715
12:00−11юв019488 0.1 1029107
15:00−10юз009764 0.1 103010
18:00−17ю0010084 0.0 10339
21:00−19сз1110096 0.0 10369
24 января, пн
пн2400:00−20ююз1110099 0.0 10379
03:00−20юз11100100 0.0 10389
06:00−21юз11100100 0.0 10399
09:00−20ююз2210099 0.0 104019
12:00−11юз239478 0.0 1039132
15:00−10ююз259622 0.0 1038149
18:00−16ююз249976 0.0 103850
21:00−17ююз2510099 0.0 103664
25 января, вт
вт2500:00−16ююз2810099 0.0 1035105
03:00−17ююз27100100 0.0 103396
06:00−15ю39100100 0.0 1030150
09:00−13ююз31198100 0.1 1028222
12:00−10ююз411925 0.0 1025277
15:00−9ююз411905 0.0 1022372
18:00−11ююз4129386 0.0 1021301
21:00−12ююз41194100 0.0 1020278
26 января, ср
ср2600:00−14ю389666 0.0 1019181
03:00−16ю2797100 0.0 1019132
06:00−13ююз249698 0.3 1019113
09:00−12юз129698 0.6 101979
12:00−9ююз119391 0.1 1019146
15:00−8ююз119497 0.1 1019168
18:00−12зюз119893 0.1 102010
21:00−15ююз1110091 0.1 10209